1513850400.28,19394,5.81,73640.8,-4.95,-16.89,-16.17,0,*59
1513850401.52,19395,5.81,73642.0,-4.97,-16.59,-16.03,0,*52
1513850402.78,19396,5.81,73642.0,-4.97,-16.45,-15.85,0,*51
1513850404.02,19397,5.81,73636.5,-4.95,-16.41,-15.85,0,*56
1513850405.25,19398,5.81,73642.8,-4.95,-16.31,-15.75,0,*51
1513850406.49,19399,5.81,73642.5,-4.95,-16.41,-15.85,0,*58
1513850407.72,19400,5.81,73640.8,-4.95,-16.41,-15.85,0,*5F
1513850408.96,19401,5.81,73642.5,-4.95,-16.27,-15.75,0,*51
1513850410.25,19402,5.81,73642.0,-4.93,-16.13,-15.43,0,*56
1513850411.51,19403,5.81,73644.3,-4.97,-16.03,-15.43,0,*52
1513850412.78,19404,5.81,73642.5,-4.97,-16.03,-15.43,0,*55
1513850414.01,19405,5.81,73644.5,-4.95,-16.41,-15.85,0,*5A
1513850415.3,19406,5.81,73646.5,-4.93,-16.09,-15.57,0,*5C
1513850416.54,19407,5.81,73644.8,-4.95,-16.17,-15.63,0,*53
1513850417.77,19408,5.81,73646.8,-4.91,-15.95,-15.35,0,*52
1513850419.02,19409,5.81,73644.8,-4.93,-15.99,-15.35,0,*5D
1513850420.28,19410,5.81,73646.8,-4.93,-15.95,-15.35,0,*59
1513850421.54,19411,5.81,73646.0,-4.93,-16.23,-15.67,0,*51
1513850422.8,19412,5.81,73640.8,-4.93,-16.41,-15.85,0,*5A
1513850424.09,19413,5.81,73642.5,-4.93,-16.27,-15.81,0,*5F
1513850425.36,19414,5.81,73642.8,-4.93,-16.37,-15.81,0,*59
1513850426.57,19415,5.81,73642.8,-4.91,-16.41,-15.95,0,*5E
1513850427.83,19416,5.81,73642.3,-4.93,-16.37,-15.85,0,*5F
1513850429.1,19417,5.81,73638.0,-4.93,-16.37,-15.85,0,*5E
1513850430.34,19418,5.81,73640.0,-4.93,-16.37,-15.95,0,*50
1513850431.6,19419,5.81,73640.0,-4.93,-16.37,-15.85,0,*50
1513850432.87,19420,5.81,73642.0,-4.93,-16.41,-15.85,0,*5B
1513850434.1,19421,5.81,73638.5,-4.93,-16.55,-15.99,0,*52
1513850435.36,19422,5.81,73636.5,-4.95,-16.27,-15.85,0,*5F
1513850436.59,19423,5.81,73638.0,-4.95,-16.59,-16.27,0,*5C
1513850437.82,19424,5.81,73636.8,-4.95,-16.45,-15.89,0,*51
1513850439.03,19425,5.81,73636.3,-4.95,-16.03,-15.71,0,*55
1513850440.27,19426,5.81,73640.8,-4.95,-16.13,-15.71,0,*57
1513850441.53,19427,5.75,73640.0,-4.95,-16.17,-15.85,0,*59
1513850442.79,19428,5.81,73642.8,-4.97,-16.13,-15.75,0,*5F
1513850444.03,19429,5.81,73642.0,-4.95,-16.17,-15.75,0,*58
1513850445.24,19430,5.81,73640.0,-4.95,-16.03,-15.75,0,*55
1513850446.52,19431,5.81,73640.3,-4.97,-16.31,-15.89,0,*54
1513850447.78,19432,5.81,73644.0,-4.97,-16.17,-15.71,0,*54
1513850449.02,19433,5.81,73640.8,-4.97,-16.03,-15.63,0,*53
1513850450.28,19434,5.81,73640.5,-4.95,-16.17,-15.85,0,*5B
1513850451.51,19435,5.81,73638.8,-4.95,-15.89,-15.63,0,*56
1513850452.78,19436,5.75,73636.3,-4.97,-15.85,-15.53,0,*58
1513850454.06,19437,5.81,73642.8,-4.97,-15.85,-15.43,0,*58
1513850455.33,19438,5.81,73640.5,-4.97,-15.85,-15.53,0,*56
1513850456.56,19439,5.81,73638.0,-4.95,-15.71,-15.43,0,*5F
1513850457.86,19440,5.81,73642.8,-4.97,-15.85,-15.43,0,*58
1513850459.12,19441,5.81,73642.0,-4.93,-15.85,-15.49,0,*57
1513850460.36,19442,5.81,73642.5,-4.93,-15.95,-15.71,0,*5E
1513850461.59,19443,5.81,73642.3,-4.95,-16.03,-15.85,0,*5E
1513850462.82,19444,5.81,73640.8,-4.97,-15.99,-15.71,0,*50
1513850464.06,19445,5.81,73642.5,-4.95,-15.85,-15.71,0,*5E
1513850465.34,19446,5.81,73640.8,-4.93,-15.81,-15.39,0,*53
1513850466.56,19447,5.81,73642.5,-4.95,-15.75,-15.53,0,*53
1513850467.8,19448,5.81,73642.5,-4.95,-15.89,-15.53,0,*5F
1513850469.05,19449,5.81,73642.8,-4.93,-15.99,-15.81,0,*56
1513850470.29,19450,5.81,73642.3,-4.95,-15.71,-15.39,0,*5D
1513850471.52,19451,5.81,73640.5,-4.95,-15.57,-15.29,0,*59
1513850472.74,19452,5.81,73644.0,-4.95,-15.63,-15.29,0,*5D
1513850474.0,19453,5.81,73644.5,-4.95,-15.89,-15.85,0,*5E
1513850475.25,19454,5.81,73646.5,-4.93,-15.67,-15.35,0,*54
1513850476.51,19455,5.81,73646.3,-4.93,-15.85,-15.67,0,*5E
1513850477.76,19456,5.81,73646.8,-4.93,-15.81,-15.67,0,*59
1513850479.02,19457,5.81,73642.0,-4.93,-15.81,-15.67,0,*58
1513850480.28,19458,5.81,73642.3,-4.93,-15.85,-15.71,0,*54
1513850481.54,19459,5.81,73642.8,-4.93,-15.85,-15.71,0,*55
1513850482.78,19460,5.81,73642.8,-4.95,-15.75,-15.43,0,*57
1513850484.02,19461,5.81,73642.3,-4.95,-15.63,-15.39,0,*5C
1513850485.26,19462,5.81,73642.5,-4.93,-15.53,-15.25,0,*57
1513850486.5,19463,5.81,73644.3,-4.91,-15.57,-15.49,0,*5A
1513850487.74,19464,5.81,73642.0,-4.93,-15.49,-15.25,0,*5A
1513850488.98,19465,5.81,73638.5,-4.93,-15.53,-15.25,0,*50
1513850490.25,19466,5.81,73642.0,-4.91,-15.57,-15.39,0,*58
1513850491.51,19467,5.81,73640.5,-4.93,-15.57,-15.49,0,*5C
1513850492.73,19468,5.81,73646.5,-4.91,-15.53,-15.49,0,*55
1513850493.99,19469,5.81,73642.5,-4.93,-15.95,-15.85,0,*5C
1513850495.28,19470,5.81,73640.3,-4.93,-15.85,-15.85,0,*55
1513850496.57,19471,5.81,73644.0,-4.93,-15.85,-15.81,0,*50
1513850497.77,19472,5.81,73640.3,-4.91,-15.71,-15.71,0,*55
1513850498.98,19473,5.81,73642.5,-4.91,-15.71,-15.67,0,*53
1513850500.23,19474,5.81,73640.8,-4.93,-15.81,-15.67,0,*59
1513850501.5,19475,5.81,73642.5,-4.93,-15.57,-15.49,0,*5F
1513850502.74,19476,5.81,73646.0,-4.91,-15.53,-15.39,0,*5D
1513850504.0,19477,5.81,73644.8,-4.93,-15.67,-15.57,0,*51
1513850505.2,19478,5.81,73642.8,-4.91,-15.67,-15.67,0,*5F
1513850506.44,19479,5.81,73644.0,-4.93,-15.67,-15.71,0,*5B
1513850507.67,19480,5.81,73640.8,-4.93,-15.67,-15.67,0,*5A
1513850508.92,19481,5.81,73642.3,-4.93,-15.57,-15.67,0,*58
1513850510.16,19482,5.81,73646.3,-4.93,-15.71,-15.71,0,*58
1513850511.42,19483,5.81,73644.0,-4.93,-15.95,-15.85,0,*58
1513850512.66,19484,5.81,73646.5,-4.93,-15.67,-15.49,0,*52
1513850513.94,19485,5.81,73644.0,-4.93,-15.57,-15.57,0,*5F
1513850515.23,19486,5.81,73640.3,-4.93,-15.85,-15.85,0,*5C
1513850516.46,19487,5.81,73642.5,-4.95,-15.71,-15.85,0,*50
1513850517.75,19488,5.81,73642.3,-4.93,-15.85,-15.85,0,*52
1513850518.98,19489,5.81,73648.5,-4.93,-15.67,-15.71,0,*54
1513850520.25,19490,5.81,73644.5,-4.93,-15.67,-15.81,0,*53
1513850521.48,19491,5.81,73642.5,-4.95,-15.89,-15.99,0,*5D
1513850522.68,19492,5.81,73640.8,-4.95,-15.53,-15.71,0,*5F
1513850523.94,19493,5.81,73644.5,-4.93,-15.57,-15.67,0,*5B
1513850525.17,19494,5.81,73644.0,-4.93,-15.53,-15.67,0,*58
1513850526.41,19495,5.81,73642.8,-4.93,-15.67,-15.71,0,*59
1513850527.67,19496,5.81,73644.8,-4.93,-15.67,-15.85,0,*51
1513850528.92,19497,5.81,73644.3,-4.93,-15.57,-15.67,0,*5F
1513850530.18,19498,5.81,73644.8,-4.93,-15.67,-15.81,0,*5B
1513850531.41,19499,5.81,73644.8,-4.91,-15.57,-15.67,0,*53
1513850532.66,19500,5.81,73644.5,-4.93,-15.39,-15.67,0,*58
1513850533.92,19501,5.81,73640.8,-4.93,-15.71,-15.85,0,*59
1513850535.19,19502,5.81,73646.0,-4.93,-15.67,-15.85,0,*5D
1513850536.45,19503,5.81,73646.3,-4.93,-15.53,-15.81,0,*5F
1513850537.68,19504,5.81,73644.0,-4.93,-15.71,-15.99,0,*51
1513850538.97,19505,5.81,73642.5,-4.93,-16.13,-16.23,0,*55
1513850540.23,19506,5.81,73646.0,-4.93,-15.67,-15.81,0,*5D
1513850541.47,19507,5.81,73644.3,-4.93,-15.53,-15.71,0,*54
1513850542.71,19508,5.81,73644.0,-4.93,-15.49,-15.71,0,*50
1513850543.99,19509,5.81,73644.5,-4.93,-15.57,-15.81,0,*51
1513850545.23,19510,5.81,73646.8,-4.93,-15.53,-15.71,0,*52
1513850546.49,19511,5.81,73646.0,-4.91,-15.57,-15.81,0,*5A
1513850547.78,19512,5.81,73642.5,-4.93,-15.57,-15.81,0,*5B
1513850549.01,19513,5.81,73646.3,-4.93,-15.67,-15.95,0,*5C
1513850550.28,19514,5.81,73646.0,-4.93,-15.53,-15.81,0,*59
1513850551.51,19515,5.81,73644.3,-4.93,-15.53,-15.71,0,*57
1513850552.77,19516,5.81,73646.5,-4.91,-15.35,-15.57,0,*52
1513850554.04,19517,5.81,73650.3,-4.93,-15.53,-15.81,0,*5A
1513850555.32,19518,5.81,73648.0,-4.93,-15.57,-15.85,0,*55
1513850556.56,19519,5.81,73644.5,-4.93,-15.67,-15.95,0,*56
1513850557.77,19520,5.81,73644.3,-4.91,-15.49,-15.71,0,*58
1513850559.05,19521,5.81,73644.8,-4.93,-15.57,-15.81,0,*5B
1513850560.32,19522,5.81,73646.0,-4.93,-15.53,-15.81,0,*5C
1513850561.58,19523,5.81,73644.5,-4.93,-15.57,-15.95,0,*5C
1513850562.82,19524,5.81,73644.8,-4.91,-15.53,-15.81,0,*58
1513850564.05,19525,5.81,73646.5,-4.91,-15.57,-15.99,0,*54
1513850565.31,19526,5.81,73644.0,-4.93,-15.71,-16.09,0,*5B
1513850566.57,19527,5.81,73648.5,-4.93,-15.67,-16.13,0,*56
1513850567.81,19528,5.81,73646.5,-4.91,-16.09,-16.41,0,*57
1513850569.09,19529,5.81,73646.0,-4.93,-15.85,-16.13,0,*54
1513850570.35,19530,5.81,73642.3,-4.91,-15.81,-16.13,0,*5A
1513850571.57,19531,5.81,73646.0,-4.93,-15.99,-16.37,0,*56
1513850572.86,19532,5.81,73646.3,-4.93,-15.81,-16.27,0,*5D
1513850574.09,19533,5.81,73646.5,-4.91,-15.71,-16.23,0,*55
1513850575.35,19534,5.81,73648.5,-4.93,-15.67,-16.09,0,*5F
1513850576.61,19535,5.81,73642.5,-4.95,-15.85,-16.13,0,*5F
1513850577.87,19536,5.81,73644.8,-4.93,-15.71,-16.13,0,*51
1513850579.1,19537,5.81,73644.8,-4.91,-15.71,-16.13,0,*52
1513850580.32,19538,5.81,73644.3,-4.93,-15.99,-16.45,0,*5A
1513850581.58,19539,5.81,73642.8,-4.95,-16.13,-16.65,0,*5E
1513850582.79,19540,5.81,73642.0,-4.91,-15.95,-16.41,0,*5F
1513850584.07,19541,5.81,73646.8,-4.93,-15.85,-16.27,0,*5D
1513850585.3,19542,5.81,73644.3,-4.93,-15.95,-16.45,0,*5B
1513850586.53,19543,5.81,73640.5,-4.93,-15.95,-16.45,0,*5A
1513850587.73,19544,5.81,73644.0,-4.91,-15.95,-16.41,0,*5B
1513850588.97,19545,5.81,73644.5,-4.93,-15.95,-16.41,0,*58
1513850590.22,19546,5.81,73644.0,-4.93,-15.81,-16.37,0,*5F
1513850591.48,19547,5.81,73646.8,-4.93,-15.71,-16.27,0,*50
1513850592.75,19548,5.81,73644.5,-4.93,-16.27,-16.75,0,*58
1513850593.98,19549,5.81,73646.0,-4.93,-16.45,-16.83,0,*54
1513850595.19,19550,5.81,73644.0,-4.95,-16.41,-16.89,0,*54
1513850596.45,19551,5.81,73646.5,-4.97,-16.27,-16.75,0,*54
1513850597.69,19552,5.81,73646.0,-4.95,-16.27,-16.75,0,*55
1513850598.92,19553,5.81,73644.3,-4.95,-16.17,-16.79,0,*5B
1513850600.13,19554,5.81,73646.3,-4.95,-16.41,-16.89,0,*50
1513850601.38,19555,5.81,73648.3,-4.95,-16.65,-17.17,0,*51
1513850602.67,19556,5.81,73646.5,-4.97,-17.03,-17.63,0,*52
1513850603.95,19557,5.81,73646.3,-4.97,-16.51,-17.17,0,*56
1513850605.21,19558,5.81,73644.0,-4.97,-16.27,-16.75,0,*5D
1513850606.48,19559,5.81,73644.3,-4.97,-16.27,-16.75,0,*5C
1513850607.74,19560,5.81,73646.5,-4.97,-16.27,-16.89,0,*55
1513850608.97,19561,5.81,73644.3,-4.97,-16.41,-16.93,0,*5F
1513850610.23,19562,5.81,73644.3,-4.97,-16.45,-17.03,0,*50
1513850611.46,19563,5.81,73650.5,-5.01,-16.31,-16.97,0,*50
1513850612.72,19564,5.81,73648.3,-5.01,-16.51,-17.07,0,*59
1513850613.95,19565,5.81,73646.5,-5.01,-16.55,-17.25,0,*5C
1513850615.22,19566,5.81,73646.5,-4.97,-16.41,-17.07,0,*54
1513850616.45,19567,5.81,73650.8,-5.01,-16.31,-16.97,0,*54
1513850617.65,19568,5.81,73644.0,-5.01,-16.37,-16.97,0,*5D
1513850618.89,19569,5.81,73648.0,-4.97,-16.41,-16.93,0,*57
1513850620.14,19570,5.81,73646.0,-5.01,-16.51,-17.25,0,*5C
1513850621.41,19571,5.81,73644.8,-4.97,-16.45,-17.07,0,*56
1513850622.64,19572,5.81,73644.8,-5.01,-16.83,-17.59,0,*5A
1513850623.9,19573,5.81,73644.5,-5.03,-16.83,-17.59,0,*59
1513850625.13,19574,5.81,73644.0,-5.01,-16.69,-17.49,0,*59
1513850626.38,19575,5.81,73644.3,-5.01,-16.65,-17.25,0,*5E
1513850627.64,19576,5.81,73646.0,-5.01,-16.69,-17.55,0,*56
1513850628.87,19577,5.81,73644.3,-5.01,-17.25,-17.87,0,*51
1513850630.13,19578,5.81,73646.5,-5.03,-17.07,-17.73,0,*57
1513850631.36,19579,5.81,73642.3,-5.03,-16.83,-17.69,0,*50
1513850632.61,19580,5.81,73648.0,-5.03,-16.69,-17.49,0,*50
1513850633.87,19581,5.81,73646.5,-5.03,-16.79,-17.55,0,*5D
1513850635.12,19582,5.81,73646.0,-5.03,-16.93,-17.59,0,*56
1513850636.38,19583,5.81,73646.0,-5.03,-16.79,-17.55,0,*5F
1513850637.64,19584,5.81,73644.5,-5.03,-16.83,-17.59,0,*51
1513850638.86,19585,5.81,73648.3,-5.03,-16.93,-17.73,0,*59
1513850640.14,19586,5.81,73644.0,-5.03,-17.21,-18.01,0,*58
1513850641.38,19587,5.81,73644.8,-5.05,-17.03,-17.87,0,*5E
1513850642.64,19588,5.81,73646.0,-5.05,-17.17,-17.93,0,*51
1513850643.89,19589,5.81,73644.3,-5.05,-17.03,-17.87,0,*50
1513850645.12,19590,5.81,73640.8,-5.07,-16.97,-17.87,0,*56
1513850646.35,19591,5.81,73642.8,-5.05,-16.97,-17.79,0,*54
1513850647.62,19592,5.81,73640.5,-5.05,-17.17,-17.93,0,*5A
1513850648.87,19593,5.81,73642.0,-5.05,-17.11,-18.01,0,*59
1513850650.13,19594,5.81,73642.3,-5.07,-17.41,-18.17,0,*5E
1513850651.38,19595,5.81,73644.5,-5.05,-17.63,-18.55,0,*5B
1513850652.64,19596,5.81,73644.3,-5.07,-17.55,-18.45,0,*5E
1513850653.89,19597,5.81,73644.3,-5.07,-17.55,-18.45,0,*5F
1513850655.18,19598,5.81,73640.0,-5.07,-17.45,-18.35,0,*56
1513850656.46,19599,5.81,73642.8,-5.07,-17.55,-18.31,0,*52
1513850657.71,19600,5.81,73642.8,-5.11,-17.63,-18.45,0,*50
1513850658.92,19601,5.81,73642.8,-5.09,-17.49,-18.41,0,*54
1513850660.18,19602,5.81,73644.8,-5.09,-17.45,-18.35,0,*58
1513850661.41,19603,5.81,73644.5,-5.11,-17.87,-18.79,0,*56
1513850662.65,19604,5.81,73646.5,-5.11,-17.69,-18.59,0,*53
1513850663.9,19605,5.81,73644.5,-5.09,-17.55,-18.55,0,*58
1513850665.14,19606,5.81,73644.8,-5.09,-17.49,-18.35,0,*50
1513850666.37,19607,5.81,73642.5,-5.11,-17.49,-18.41,0,*5B
1513850667.63,19608,5.81,73646.5,-5.11,-17.63,-18.59,0,*55
1513850668.89,19609,5.81,73644.0,-5.09,-17.55,-18.35,0,*52
1513850670.15,19610,5.81,73644.0,-5.09,-17.45,-18.35,0,*5B
1513850671.41,19611,5.81,73648.5,-5.09,-17.59,-18.55,0,*51
1513850672.63,19612,5.81,73646.0,-5.09,-17.69,-18.59,0,*5D
1513850673.84,19613,5.81,73640.5,-5.09,-17.69,-18.69,0,*5F
1513850675.09,19614,5.81,73644.3,-5.09,-17.93,-18.89,0,*53
1513850676.34,19615,5.81,73646.3,-5.11,-17.87,-18.89,0,*5E
1513850677.57,19616,5.81,73644.8,-5.11,-17.83,-18.73,0,*5C
1513850678.82,19617,5.81,73644.5,-5.11,-17.83,-18.89,0,*58
1513850680.05,19618,5.81,73646.0,-5.09,-17.79,-18.83,0,*51
1513850681.28,19619,5.81,73648.0,-5.11,-18.41,-19.47,0,*54
1513850682.53,19620,5.81,73644.0,-5.11,-17.97,-19.03,0,*5A
1513850683.78,19621,5.81,73646.3,-5.11,-17.97,-19.07,0,*5F
1513850685.04,19622,5.81,73644.3,-5.13,-17.97,-18.93,0,*52
1513850686.27,19623,5.81,73644.3,-5.13,-17.87,-18.89,0,*59
1513850687.47,19624,5.81,73644.8,-5.13,-17.73,-18.79,0,*5A
1513850688.69,19625,5.81,73650.0,-5.17,-18.01,-19.07,0,*5D
1513850689.91,19626,5.81,73644.3,-5.13,-18.41,-19.37,0,*5D
1513850691.14,19627,5.81,73644.8,-5.13,-17.97,-19.17,0,*5A
1513850692.37,19628,5.81,73644.3,-5.13,-18.11,-19.23,0,*53
1513850693.63,19629,5.81,73648.8,-5.17,-18.01,-19.23,0,*57
1513850694.83,19630,5.81,73646.8,-5.13,-18.25,-19.37,0,*58
1513850696.07,19631,5.81,73646.5,-5.17,-18.31,-19.51,0,*58
1513850697.28,19632,5.81,73646.8,-5.17,-18.65,-19.95,0,*52
1513850698.51,19633,5.81,73646.5,-5.17,-18.59,-19.91,0,*58
1513850699.72,19634,5.81,73646.3,-5.17,-18.69,-19.99,0,*54
1513850700.96,19635,5.81,73644.3,-5.17,-18.65,-19.85,0,*54
1513850702.19,19636,5.81,73640.5,-5.19,-18.65,-19.91,0,*5C
1513850703.45,19637,5.81,73642.0,-5.19,-18.65,-19.81,0,*5C
1513850704.69,19638,5.81,73644.3,-5.19,-18.69,-20.05,0,*59
1513850705.9,19639,5.81,73642.0,-5.21,-18.83,-20.25,0,*55
1513850707.17,19640,5.81,73646.8,-5.19,-19.03,-20.49,0,*53
1513850708.4,19641,5.81,73644.8,-5.25,-18.89,-20.29,0,*58
1513850709.66,19642,5.81,73644.8,-5.27,-18.69,-20.15,0,*58
1513850710.92,19643,5.81,73642.8,-5.25,-18.59,-19.85,0,*5B
1513850712.17,19644,5.81,73644.0,-5.25,-18.93,-20.39,0,*57
1513850713.44,19645,5.81,73640.0,-5.27,-19.17,-20.53,0,*55
1513850714.7,19646,5.81,73642.8,-5.27,-19.31,-20.73,0,*50
1513850715.94,19647,5.81,73644.5,-5.29,-19.65,-21.09,0,*52
1513850717.21,19648,5.81,73646.3,-5.31,-19.75,-21.27,0,*59
1513850718.48,19649,5.81,73642.3,-5.31,-19.75,-21.23,0,*5C
1513850719.71,19650,5.81,73640.8,-5.31,-19.75,-21.13,0,*57
1513850720.95,19651,5.81,73644.0,-5.35,-19.75,-21.27,0,*55
1513850722.18,19652,5.81,73642.3,-5.33,-19.71,-21.13,0,*53
1513850723.44,19653,5.81,73642.3,-5.35,-19.31,-20.83,0,*58
1513850724.67,19654,5.81,73642.8,-5.35,-19.47,-20.99,0,*55
1513850725.9,19655,5.81,73644.3,-5.39,-19.65,-21.09,0,*50
1513850727.17,19656,5.81,73646.0,-5.41,-19.57,-21.09,0,*5D
1513850728.43,19657,5.81,73640.0,-5.41,-19.57,-21.13,0,*57
1513850729.67,19658,5.81,73644.8,-5.39,-19.23,-20.69,0,*58
1513850730.91,19659,5.81,73644.8,-5.41,-19.07,-20.73,0,*5B
1513850732.18,19660,5.81,73642.0,-5.41,-19.27,-20.93,0,*5D
1513850733.4,19661,5.81,73642.8,-5.43,-19.51,-20.93,0,*5F
1513850734.66,19662,5.81,73646.3,-5.45,-19.75,-21.27,0,*52
1513850735.92,19663,5.81,73642.3,-5.45,-19.85,-21.47,0,*5A
1513850737.18,19664,5.81,73642.0,-5.45,-19.85,-21.47,0,*5D
1513850738.44,19665,5.81,73642.0,-5.45,-19.75,-21.33,0,*50
1513850739.73,19666,5.81,73640.5,-5.49,-19.65,-21.33,0,*5E
1513850741.0,19667,5.81,73640.0,-5.45,-19.85,-21.57,0,*5F
1513850742.24,19668,5.81,73642.3,-5.49,-19.75,-21.39,0,*5B
1513850743.49,19669,5.81,73642.5,-5.49,-19.81,-21.39,0,*51
1513850744.75,19670,5.81,73638.8,-5.51,-19.61,-21.33,0,*54
1513850746.02,19671,5.81,73640.5,-5.49,-19.23,-20.89,0,*5A
1513850747.26,19672,5.81,73640.3,-5.51,-19.17,-20.83,0,*5D
1513850748.47,19673,5.81,73640.0,-5.51,-19.03,-20.73,0,*56
1513850749.69,19674,5.81,73640.8,-5.51,-18.99,-20.69,0,*58
1513850750.95,19675,5.81,73642.5,-5.49,-18.89,-20.59,0,*52
1513850752.24,19676,5.81,73642.3,-5.53,-19.27,-21.03,0,*51
1513850753.46,19677,5.81,73640.5,-5.51,-19.03,-20.89,0,*57
1513850754.72,19678,5.81,73640.0,-5.53,-19.03,-20.79,0,*55
1513850755.96,19679,5.81,73642.5,-5.53,-19.03,-20.73,0,*5E
1513850757.23,19680,5.81,73642.8,-5.53,-19.51,-21.23,0,*5B
1513850758.47,19681,5.81,73640.8,-5.51,-19.41,-21.13,0,*5A
1513850759.76,19682,5.81,73642.5,-5.53,-19.23,-21.03,0,*5E
1513850761.0,19683,5.81,73640.0,-5.53,-19.07,-20.93,0,*51
1513850762.24,19684,5.81,73642.0,-5.53,-19.07,-20.93,0,*56
1513850763.5,19685,5.81,73644.5,-5.53,-19.03,-20.79,0,*57
1513850764.76,19686,5.81,73642.5,-5.53,-19.07,-20.79,0,*50
1513850765.97,19687,5.81,73640.3,-5.51,-19.07,-20.93,0,*57
1513850767.22,19688,5.81,73642.0,-5.53,-19.07,-20.89,0,*51
1513850768.49,19689,5.81,73642.3,-5.53,-19.27,-21.13,0,*50
1513850769.73,19690,5.81,73642.3,-5.53,-19.03,-20.73,0,*59
1513850771.02,19691,5.81,73644.3,-5.53,-18.93,-20.79,0,*5A
1513850772.31,19692,5.81,73642.0,-5.53,-18.93,-20.79,0,*59
1513850773.59,19693,5.81,73642.5,-5.53,-18.89,-20.79,0,*53
1513850774.85,19694,5.81,73640.3,-5.53,-18.73,-20.49,0,*52
1513850776.14,19695,5.81,73640.8,-5.53,-18.93,-20.79,0,*5E
1513850777.4,19696,5.81,73642.3,-5.53,-18.79,-20.79,0,*59
1513850778.62,19697,5.81,73640.0,-5.55,-18.73,-20.59,0,*56
1513850779.88,19698,5.81,73642.0,-5.53,-18.59,-20.43,0,*5C
1513850781.1,19699,5.81,73644.8,-5.55,-18.79,-20.63,0,*5B
1513850782.34,19700,5.81,73640.3,-5.53,-18.79,-20.63,0,*5C
1513850783.58,19701,5.81,73642.8,-5.51,-18.73,-20.53,0,*56
1513850784.82,19702,5.81,73642.8,-5.53,-18.73,-20.63,0,*54
1513850786.08,19703,5.81,73642.8,-5.53,-18.79,-20.79,0,*54
1513850787.33,19704,5.81,73644.3,-5.53,-19.13,-21.13,0,*53
1513850788.56,19705,5.81,73644.5,-5.53,-19.03,-21.09,0,*58
1513850789.8,19706,5.81,73642.3,-5.55,-18.93,-20.93,0,*57
1513850791.06,19707,5.81,73642.5,-5.53,-18.79,-20.79,0,*50
1513850792.27,19708,5.81,73640.8,-5.55,-18.79,-20.73,0,*53
1513850793.51,19709,5.81,73646.8,-5.55,-18.93,-20.93,0,*58
1513850794.71,19710,5.81,73646.5,-5.55,-19.03,-21.09,0,*5A
1513850795.95,19711,5.81,73646.8,-5.55,-18.93,-20.93,0,*51
1513850797.18,19712,5.81,73644.5,-5.55,-18.79,-20.79,0,*52
1513850798.41,19713,5.81,73644.3,-5.55,-18.89,-20.93,0,*58
1513850799.67,19714,5.81,73646.0,-5.57,-18.69,-20.79,0,*57
1513850800.96,19715,5.81,73646.8,-5.57,-18.55,-20.53,0,*51
1513850802.17,19716,5.81,73644.3,-5.55,-18.65,-20.59,0,*59
1513850803.39,19717,5.81,73644.0,-5.55,-18.65,-20.63,0,*51
1513850804.6,19718,5.81,73646.3,-5.55,-18.45,-20.43,0,*5E
1513850805.84,19719,5.81,73646.5,-5.55,-18.35,-20.43,0,*58
1513850807.13,19720,5.81,73640.5,-5.57,-18.55,-20.49,0,*5C
1513850808.34,19721,5.81,73644.3,-5.55,-18.49,-20.43,0,*58
1513850809.58,19722,5.81,73644.5,-5.55,-18.49,-20.49,0,*51
1513850810.85,19723,5.81,73646.5,-5.53,-18.35,-20.43,0,*57
1513850812.09,19724,5.81,73646.8,-5.55,-18.35,-20.43,0,*56
1513850813.35,19725,5.81,73644.5,-5.57,-18.65,-20.53,0,*51
1513850814.61,19726,5.81,73644.3,-5.55,-18.35,-20.35,0,*55
1513850815.82,19727,5.81,73646.3,-5.55,-18.45,-20.59,0,*59
1513850817.03,19728,5.81,73642.8,-5.55,-18.45,-20.43,0,*5D
1513850818.3,19729,5.81,73644.8,-5.55,-18.31,-20.35,0,*5E
1513850819.53,19730,5.81,73644.3,-5.55,-18.59,-20.63,0,*5B
1513850820.74,19731,5.81,73644.0,-5.55,-18.79,-20.73,0,*59
1513850822.03,19732,5.81,73646.3,-5.57,-18.55,-20.53,0,*54
1513850823.27,19733,5.81,73646.3,-5.53,-18.49,-20.43,0,*5D
1513850824.52,19734,5.81,73642.8,-5.51,-18.31,-20.39,0,*5A
1513850825.76,19735,5.81,73644.5,-5.55,-18.31,-20.29,0,*5E
1513850826.98,19736,5.81,73644.0,-5.55,-18.79,-20.89,0,*5B
1513850828.21,19737,5.81,73644.8,-5.55,-18.45,-20.49,0,*59
1513850829.48,19738,5.81,73644.0,-5.53,-18.35,-20.43,0,*5D
1513850830.77,19739,5.81,73646.0,-5.57,-18.35,-20.35,0,*59
1513850832.01,19740,5.81,73642.8,-5.53,-18.45,-20.43,0,*55
1513850833.25,19741,5.81,73644.8,-5.55,-18.35,-20.43,0,*55
1513850834.51,19742,5.81,73650.5,-5.55,-18.31,-20.35,0,*53
1513850835.75,19743,5.81,73644.3,-5.55,-18.31,-20.29,0,*5F
1513850837.01,19744,5.81,73646.0,-5.57,-18.21,-20.19,0,*58
1513850838.25,19745,5.81,73648.0,-5.53,-18.49,-20.73,0,*5F
1513850839.46,19746,5.81,73644.8,-5.55,-18.65,-20.63,0,*55
1513850840.7,19747,5.81,73644.0,-5.55,-18.35,-20.29,0,*5F
1513850841.93,19748,5.81,73646.5,-5.55,-18.21,-20.19,0,*56
1513850843.21,19749,5.81,73644.5,-5.57,-18.35,-20.35,0,*5E
1513850844.47,19750,5.81,73646.0,-5.57,-18.25,-20.19,0,*59
1513850845.73,19751,5.81,73646.8,-5.57,-18.21,-20.19,0,*5C
1513850846.96,19752,5.81,73646.3,-5.55,-18.17,-20.15,0,*54
1513850848.2,19753,5.81,73646.3,-5.55,-18.21,-20.19,0,*5C
1513850849.44,19754,5.81,73646.5,-5.55,-18.49,-20.49,0,*50
1513850850.65,19755,5.81,73642.8,-5.55,-18.45,-20.43,0,*57
1513850851.89,19756,5.81,73642.8,-5.51,-18.31,-20.29,0,*5F
1513850853.15,19757,5.81,73646.3,-5.53,-18.21,-20.19,0,*5E
1513850854.38,19758,5.81,73644.8,-5.55,-18.21,-20.15,0,*5B
1513850855.61,19759,5.81,73640.3,-5.55,-18.25,-20.35,0,*5C
1513850856.84,19760,5.81,73646.0,-5.55,-18.21,-20.15,0,*50
1513850858.07,19761,5.81,73640.5,-5.57,-18.25,-20.25,0,*54
1513850859.3,19762,5.81,73644.5,-5.55,-18.17,-20.15,0,*57
1513850860.56,19763,5.81,73644.0,-5.57,-18.21,-20.19,0,*5D
1513850861.79,19764,5.81,73646.3,-5.55,-18.21,-20.15,0,*54
1513850863.03,19765,5.81,73640.8,-5.55,-18.45,-20.49,0,*5E
1513850864.24,19766,5.81,73644.5,-5.55,-18.49,-20.59,0,*50
1513850865.5,19767,5.81,73644.8,-5.55,-18.31,-20.15,0,*56
1513850866.73,19768,5.81,73646.3,-5.55,-18.21,-20.19,0,*54
1513850868.0,19769,5.81,73644.0,-5.57,-18.49,-20.53,0,*57
1513850869.22,19770,5.81,73644.3,-5.55,-18.17,-20.15,0,*54
1513850870.43,19771,5.81,73644.8,-5.55,-18.17,-19.99,0,*5B
1513850871.67,19772,5.81,73646.0,-5.57,-18.25,-20.05,0,*54
1513850872.89,19773,5.81,73644.3,-5.55,-18.17,-20.15,0,*57
1513850874.13,19774,5.81,73648.3,-5.57,-18.07,-19.99,0,*5D
1513850875.34,19775,5.81,73646.3,-5.55,-18.11,-19.95,0,*55
1513850876.57,19776,5.81,73646.8,-5.57,-18.21,-20.25,0,*56
1513850877.84,19777,5.81,73644.3,-5.55,-18.31,-20.19,0,*5B
1513850879.04,19778,5.81,73646.3,-5.55,-18.17,-19.99,0,*52
1513850880.3,19779,5.81,73646.0,-5.55,-18.35,-20.19,0,*51
1513850881.57,19780,5.81,73646.8,-5.55,-18.31,-20.19,0,*53
1513850882.81,19781,5.81,73644.5,-5.57,-18.99,-20.93,0,*50
1513850884.07,19782,5.81,73642.3,-5.57,-18.65,-20.49,0,*57
1513850885.31,19783,5.81,73646.8,-5.57,-18.79,-20.69,0,*59
1513850886.58,19784,5.81,73646.3,-5.61,-18.69,-20.53,0,*53
1513850887.85,19785,5.81,73644.0,-5.61,-18.59,-20.59,0,*5B
1513850889.09,19786,5.81,73642.0,-5.61,-18.83,-20.73,0,*57
1513850890.3,19787,5.81,73642.0,-5.63,-18.73,-20.69,0,*50
1513850891.57,19788,5.81,73640.3,-5.61,-18.89,-20.89,0,*56
1513850892.78,19789,5.81,73640.3,-5.63,-19.17,-21.13,0,*51
1513850894.05,19790,5.81,73642.3,-5.63,-19.31,-21.23,0,*5E
1513850895.27,19791,5.81,73642.0,-5.63,-19.17,-21.17,0,*5C
1513850896.54,19792,5.81,73642.8,-5.65,-19.37,-21.27,0,*58
1513850897.77,19793,5.81,73638.8,-5.67,-18.89,-20.73,0,*5F
1513850899.04,19794,5.81,73638.3,-5.65,-18.93,-20.89,0,*54
1513850900.25,19795,5.81,73640.8,-5.67,-18.79,-20.63,0,*57
1513850901.48,19796,5.81,73640.8,-5.67,-18.89,-20.73,0,*5A
1513850902.71,19797,5.81,73638.8,-5.67,-18.89,-20.73,0,*5B
1513850903.95,19798,5.81,73640.3,-5.69,-18.79,-20.73,0,*55
1513850905.19,19799,5.81,73638.3,-5.69,-18.73,-20.59,0,*56
1513850906.42,19800,5.81,73640.3,-5.67,-18.49,-20.35,0,*54